| time (UTC) | temp F | wind direction | speed MPH | gust MPH | rain 1hr in | rain 24hr in | rain mn in | humidity % | barometer mb |
| 20260509124017 | 56 | 213 | 2.0 | 6.0 | 0.00 | 0.00 | 0.00 | 81 | 1003.5 |
| 20260509123020 | 55 | 162 | 2.0 | 4.0 | 0.00 | 0.00 | 0.00 | 83 | 1003.5 |
| 20260509122021 | 55 | 216 | 3.0 | 5.0 | 0.00 | 0.00 | 0.00 | 84 | 1003.6 |
| 20260509121021 | 55 | 253 | 2.0 | 4.0 | 0.00 | 0.00 | 0.00 | 86 | 1003.6 |
| 20260509120021 | 54 | 175 | 2.0 | 4.0 | 0.00 | 0.00 | 0.00 | 87 | 1003.5 |
| 20260509115021 | 54 | 204 | 3.0 | 6.0 | 0.00 | 0.00 | 0.00 | 89 | 1003.4 |
| 20260509114021 | 54 | 227 | 2.0 | 3.0 | 0.00 | 0.00 | 0.00 | 89 | 1003.3 |
| 20260509113021 | 54 | 210 | 2.0 | 5.0 | 0.00 | 0.00 | 0.00 | 89 | 1003.2 |
| 20260509112022 | 54 | 225 | 2.0 | 4.0 | 0.00 | 0.00 | 0.00 | 89 | 1003.3 |
| 20260509111022 | 54 | 282 | 3.0 | 5.0 | 0.00 | 0.00 | 0.00 | 88 | 1003.2 |
| 20260509105022 | 54 | 247 | 2.0 | 3.0 | 0.00 | 0.00 | 0.00 | 88 | 1003.0 |
| 20260509104022 | 54 | 222 | 2.0 | 4.0 | 0.00 | 0.00 | 0.00 | 87 | 1002.9 |
| 20260509103022 | 54 | 250 | 2.0 | 4.0 | 0.00 | 0.00 | 0.00 | 87 | 1002.9 |
| 20260509102103 | 54 | 225 | 2.0 | 3.0 | 0.00 | 0.00 | 0.00 | 88 | 1002.9 |
| 20260509101023 | 54 | 152 | 2.0 | 5.0 | 0.00 | 0.00 | 0.00 | 88 | 1003.0 |
| 20260509100023 | 54 | 195 | 2.0 | 4.0 | 0.00 | 0.00 | 0.00 | 88 | 1003.1 |
| 20260509095023 | 54 | 200 | 2.0 | 4.0 | 0.00 | 0.00 | 0.00 | 88 | 1003.3 |
| 20260509094023 | 54 | 237 | 2.0 | 4.0 | 0.00 | 0.00 | 0.00 | 88 | 1003.5 |
| 20260509093023 | 54 | 206 | 2.0 | 3.0 | 0.00 | 0.00 | 0.00 | 88 | 1003.6 |
| 20260509092023 | 54 | 174 | 2.0 | 3.0 | 0.00 | 0.00 | 0.00 | 88 | 1003.5 |
| 20260509091023 | 54 | 231 | 2.0 | 4.0 | 0.00 | 0.00 | 0.00 | 88 | 1003.6 |
| 20260509090044 | 54 | 199 | 2.0 | 3.0 | 0.00 | 0.00 | 0.00 | 88 | 1003.7 |
| 20260509085044 | 54 | 215 | 2.0 | 3.0 | 0.00 | 0.00 | 0.00 | 88 | 1003.8 |
| 20260509084024 | 54 | 206 | 3.0 | 5.0 | 0.00 | 0.00 | 0.00 | 88 | 1003.8 |
| 20260509083018 | 54 | 236 | 2.0 | 6.0 | 0.00 | 0.00 | 0.00 | 87 | 1003.8 |
| 20260509082025 | 54 | 222 | 2.0 | 4.0 | 0.00 | 0.00 | 0.00 | 87 | 1003.7 |
| 20260509081019 | 54 | 205 | 2.0 | 6.0 | 0.00 | 0.00 | 0.00 | 87 | 1003.7 |
| 20260509080019 | 54 | 231 | 2.0 | 4.0 | 0.00 | 0.00 | 0.00 | 86 | 1003.7 |
| 20260509075017 | 54 | 219 | 2.0 | 5.0 | 0.00 | 0.00 | 0.00 | 86 | 1003.8 |
| 20260509074036 | 54 | 209 | 2.0 | 3.0 | 0.00 | 0.00 | 0.00 | 85 | 1003.9 |
| 20260509073017 | 55 | 218 | 2.0 | 5.0 | 0.00 | 0.00 | 0.00 | 85 | 1004.0 |
| 20260509072017 | 55 | 237 | 2.0 | 5.0 | 0.00 | 0.00 | 0.00 | 85 | 1004.2 |
| 20260509071017 | 55 | 233 | 2.0 | 3.0 | 0.00 | 0.00 | 0.00 | 85 | 1004.3 |
| 20260509070017 | 55 | 233 | 2.0 | 4.0 | 0.00 | 0.00 | 0.00 | 84 | 1004.5 |
| 20260509065037 | 55 | 236 | 2.0 | 6.0 | 0.00 | 0.00 | 0.00 | 84 | 1004.5 |
| 20260509064018 | 55 | 221 | 2.0 | 4.0 | 0.00 | 0.00 | 0.00 | 84 | 1004.6 |
| 20260509063018 | 56 | 242 | 2.0 | 5.0 | 0.00 | 0.00 | 0.00 | 84 | 1004.6 |
| 20260509062018 | 56 | 223 | 2.0 | 6.0 | 0.00 | 0.00 | 0.00 | 83 | 1004.7 |
| 20260509061038 | 56 | 203 | 2.0 | 4.0 | 0.00 | 0.00 | 0.00 | 83 | 1004.9 |
| 20260509060018 | 56 | 211 | 2.0 | 6.0 | 0.00 | 0.00 | 0.00 | 83 | 1005.0 |
| 20260509055018 | 56 | 190 | 2.0 | 5.0 | 0.00 | 0.00 | 0.00 | 82 | 1005.0 |
| 20260509054018 | 56 | 231 | 2.0 | 4.0 | 0.00 | 0.00 | 0.00 | 82 | 1005.0 |
| 20260509053019 | 57 | 240 | 2.0 | 5.0 | 0.00 | 0.00 | 0.00 | 81 | 1005.0 |
| 20260509052039 | 57 | 261 | 2.0 | 4.0 | 0.00 | 0.00 | 0.00 | 81 | 1004.9 |
| 20260509051016 | 57 | 200 | 2.0 | 6.0 | 0.00 | 0.00 | 0.00 | 80 | 1005.0 |
| 20260509050016 | 57 | 212 | 2.0 | 5.0 | 0.00 | 0.00 | 0.00 | 79 | 1005.0 |
| 20260509045036 | 57 | 186 | 2.0 | 4.0 | 0.00 | 0.00 | 0.00 | 79 | 1004.9 |
| 20260509044020 | 57 | 198 | 2.0 | 4.0 | 0.00 | 0.00 | 0.00 | 79 | 1005.2 |
| 20260509043020 | 57 | 211 | 2.0 | 4.0 | 0.00 | 0.00 | 0.00 | 78 | 1005.2 |
| 20260509042017 | 57 | 248 | 2.0 | 4.0 | 0.00 | 0.00 | 0.00 | 78 | 1005.1 |
| 20260509041017 | 57 | 139 | 1.0 | 3.0 | 0.00 | 0.00 | 0.00 | 77 | 1005.0 |
| 20260509040017 | 56 | 201 | 2.0 | 4.0 | 0.00 | 0.00 | 0.00 | 78 | 1005.1 |
| 20260509035017 | 56 | 167 | 1.0 | 4.0 | 0.00 | 0.00 | 0.00 | 77 | 1005.3 |
| 20260509034017 | 54 | 193 | 2.0 | 5.0 | 0.00 | 0.00 | 0.00 | 79 | 1005.3 |
| 20260509033018 | 53 | 133 | 1.0 | 3.0 | 0.00 | 0.00 | 0.00 | 80 | 1005.3 |
| 20260509032018 | 52 | 89 | 1.0 | 3.0 | 0.00 | 0.00 | 0.00 | 81 | 1005.3 |
| 20260509031018 | 52 | 43 | 1.0 | 3.0 | 0.00 | 0.00 | 0.00 | 81 | 1005.4 |
| 20260509030018 | 52 | 88 | 1.0 | 2.0 | 0.00 | 0.00 | 0.00 | 80 | 1005.4 |
| 20260509025018 | 53 | 57 | 1.0 | 2.0 | 0.00 | 0.00 | 0.00 | 79 | 1005.5 |
| 20260509024018 | 53 | 71 | 2.0 | 3.0 | 0.00 | 0.00 | 0.00 | 78 | 1005.6 |
| 20260509023039 | 53 | 77 | 2.0 | 2.0 | 0.00 | 0.00 | 0.00 | 78 | 1005.6 |
| 20260509022016 | 53 | 73 | 2.0 | 3.0 | 0.00 | 0.00 | 0.00 | 77 | 1005.7 |
| 20260509021019 | 53 | 77 | 2.0 | 3.0 | 0.00 | 0.00 | 0.00 | 77 | 1005.7 |
| 20260509020019 | 53 | 81 | 2.0 | 3.0 | 0.00 | 0.00 | 0.00 | 76 | 1005.8 |
| 20260509015019 | 53 | 85 | 2.0 | 3.0 | 0.00 | 0.00 | 0.00 | 76 | 1005.7 |
| 20260509014040 | 53 | 77 | 2.0 | 3.0 | 0.00 | 0.00 | 0.00 | 75 | 1005.7 |
| 20260509013016 | 53 | 83 | 1.0 | 3.0 | 0.00 | 0.00 | 0.00 | 74 | 1005.7 |
| 20260509012016 | 53 | 78 | 2.0 | 3.0 | 0.00 | 0.00 | 0.00 | 72 | 1005.6 |
| 20260509011017 | 54 | 68 | 1.0 | 3.0 | 0.00 | 0.00 | 0.00 | 70 | 1005.6 |
| 20260509010017 | 54 | 82 | 2.0 | 4.0 | 0.00 | 0.00 | 0.00 | 68 | 1005.7 |
| 20260509005017 | 54 | 74 | 2.0 | 4.0 | 0.00 | 0.00 | 0.00 | 66 | 1005.7 |
| 20260509004017 | 55 | 90 | 2.0 | 5.0 | 0.00 | 0.00 | 0.00 | 64 | 1005.6 |
| 20260509003017 | 55 | 75 | 2.0 | 3.0 | 0.00 | 0.00 | 0.00 | 62 | 1005.7 |
| 20260509002138 | 56 | 85 | 2.0 | 4.0 | 0.00 | 0.00 | 0.00 | 60 | 1005.8 |
| 20260509001018 | 56 | 71 | 2.0 | 3.0 | 0.00 | 0.00 | 0.00 | 59 | 1005.8 |
| 20260509000018 | 57 | 71 | 2.0 | 5.0 | 0.00 | 0.00 | 0.00 | 57 | 1005.8 |
| 20260508235058 | 58 | 69 | 2.0 | 4.0 | 0.00 | 0.00 | 0.00 | 55 | 1006.0 |
| 20260508234018 | 59 | 78 | 3.0 | 6.0 | 0.00 | 0.00 | 0.00 | 52 | 1006.0 |
| 20260508233018 | 60 | 81 | 3.0 | 7.0 | 0.00 | 0.00 | 0.00 | 52 | 1006.0 |
| 20260508232019 | 61 | 77 | 3.0 | 8.0 | 0.00 | 0.00 | 0.00 | 50 | 1006.1 |
| 20260508231018 | 62 | 78 | 2.0 | 5.0 | 0.00 | 0.00 | 0.00 | 49 | 1006.2 |
| 20260508230019 | 62 | 75 | 2.0 | 7.0 | 0.00 | 0.00 | 0.00 | 48 | 1006.2 |
| 20260508225016 | 61 | 72 | 2.0 | 6.0 | 0.00 | 0.00 | 0.00 | 47 | 1006.3 |
| 20260508224016 | 61 | 80 | 3.0 | 6.0 | 0.00 | 0.00 | 0.00 | 47 | 1006.3 |
| 20260508223017 | 59 | 74 | 3.0 | 8.0 | 0.00 | 0.00 | 0.00 | 49 | 1006.3 |
| 20260508222019 | 59 | 83 | 3.0 | 6.0 | 0.00 | 0.00 | 0.00 | 52 | 1006.3 |
| 20260508221020 | 59 | 91 | 2.0 | 6.0 | 0.00 | 0.00 | 0.00 | 56 | 1006.4 |
| 20260508220017 | 59 | 80 | 3.0 | 9.0 | 0.00 | 0.00 | 0.00 | 56 | 1006.5 |
| 20260508215017 | 59 | 76 | 3.0 | 8.0 | 0.00 | 0.00 | 0.00 | 58 | 1006.6 |
| 20260508214017 | 60 | 76 | 3.0 | 9.0 | 0.00 | 0.00 | 0.00 | 53 | 1006.5 |
| 20260508213038 | 61 | 78 | 4.0 | 9.0 | 0.00 | 0.03 | 0.00 | 52 | 1006.7 |
| 20260508212017 | 61 | 90 | 2.0 | 6.0 | 0.00 | 0.05 | 0.00 | 54 | 1006.7 |
| 20260508211018 | 63 | 89 | 3.0 | 6.0 | 0.00 | 0.05 | 0.00 | 52 | 1006.7 |
| 20260508210018 | 65 | 82 | 3.0 | 8.0 | 0.00 | 0.06 | 0.00 | 49 | 1006.7 |
| 20260508205018 | 64 | 68 | 3.0 | 11.0 | 0.00 | 0.07 | 0.00 | 50 | 1006.9 |
| 20260508204018 | 62 | 80 | 4.0 | 9.0 | 0.00 | 0.07 | 0.00 | 53 | 1007.0 |
| 20260508203038 | 64 | 76 | 4.0 | 10.0 | 0.00 | 0.07 | 0.00 | 52 | 1007.1 |
| 20260508202036 | 64 | 66 | 3.0 | 9.0 | 0.00 | 0.07 | 0.00 | 52 | 1007.3 |
| 20260508201036 | 63 | 81 | 3.0 | 9.0 | 0.00 | 0.07 | 0.00 | 53 | 1007.5 |
| 20260508200019 | 61 | 70 | 3.0 | 8.0 | 0.00 | 0.07 | 0.00 | 56 | 1007.7 |
| 20260508195019 | 62 | 76 | 4.0 | 10.0 | 0.00 | 0.07 | 0.00 | 55 | 1007.8 |
| 20260508194059 | 64 | 71 | 3.0 | 19.0 | 0.00 | 0.07 | 0.00 | 51 | 1007.9 |
| 20260508193016 | 63 | 87 | 3.0 | 9.0 | 0.00 | 0.07 | 0.00 | 52 | 1007.9 |
| 20260508192017 | 62 | 73 | 3.0 | 8.0 | 0.00 | 0.07 | 0.00 | 54 | 1008.0 |
| 20260508191017 | 62 | 78 | 5.0 | 12.0 | 0.00 | 0.07 | 0.00 | 55 | 1008.1 |
| 20260508190017 | 62 | 74 | 4.0 | 10.0 | 0.00 | 0.07 | 0.00 | 56 | 1008.3 |
| 20260508185020 | 62 | 69 | 4.0 | 10.0 | 0.00 | 0.07 | 0.00 | 58 | 1008.5 |
| 20260508184017 | 62 | 78 | 4.0 | 10.0 | 0.00 | 0.07 | 0.00 | 57 | 1008.6 |
| 20260508183017 | 63 | 59 | 5.0 | 12.0 | 0.00 | 0.07 | 0.00 | 53 | 1008.7 |
| 20260508182018 | 64 | 44 | 4.0 | 12.0 | 0.00 | 0.07 | 0.00 | 50 | 1008.7 |
| 20260508181018 | 64 | 74 | 3.0 | 10.0 | 0.00 | 0.07 | 0.00 | 52 | 1008.8 |
| 20260508180018 | 64 | 101 | 3.0 | 19.0 | 0.00 | 0.07 | 0.00 | 55 | 1008.9 |
| 20260508175038 | 64 | 79 | 3.0 | 8.0 | 0.00 | 0.07 | 0.00 | 59 | 1009.2 |
| 20260508174018 | 62 | 80 | 4.0 | 10.0 | 0.00 | 0.07 | 0.00 | 58 | 1009.3 |
| 20260508173038 | 61 | 83 | 3.0 | 8.0 | 0.00 | 0.07 | 0.00 | 65 | 1009.5 |
| 20260508172018 | 60 | 74 | 4.0 | 9.0 | 0.00 | 0.07 | 0.00 | 67 | 1009.6 |
| 20260508171019 | 59 | 91 | 4.0 | 10.0 | 0.00 | 0.07 | 0.00 | 69 | 1009.8 |
| 20260508170019 | 60 | 73 | 4.0 | 9.0 | 0.00 | 0.07 | 0.00 | 67 | 1009.8 |
| 20260508165019 | 60 | 80 | 3.0 | 9.0 | 0.00 | 0.07 | 0.00 | 65 | 1010.0 |
| 20260508164056 | 60 | 75 | 4.0 | 10.0 | 0.00 | 0.07 | 0.00 | 66 | 1010.2 |
| 20260508163036 | 60 | 85 | 3.0 | 10.0 | 0.00 | 0.07 | 0.00 | 65 | 1010.3 |
| 20260508162016 | 60 | 83 | 3.0 | 10.0 | 0.00 | 0.07 | 0.00 | 65 | 1010.4 |
| 20260508161019 | 59 | 87 | 3.0 | 7.0 | 0.00 | 0.07 | 0.00 | 67 | 1010.4 |
| 20260508160020 | 59 | 73 | 4.0 | 10.0 | 0.00 | 0.07 | 0.00 | 67 | 1010.4 |
| 20260508155017 | 58 | 65 | 3.0 | 9.0 | 0.00 | 0.07 | 0.00 | 69 | 1010.6 |
| 20260508154017 | 58 | 77 | 4.0 | 13.0 | 0.00 | 0.07 | 0.00 | 69 | 1010.6 |
| 20260508153017 | 57 | 77 | 4.0 | 10.0 | 0.00 | 0.07 | 0.00 | 72 | 1010.6 |
| 20260508152017 | 58 | 68 | 4.0 | 8.0 | 0.00 | 0.07 | 0.00 | 70 | 1010.7 |
| 20260508151018 | 58 | 79 | 3.0 | 7.0 | 0.00 | 0.07 | 0.00 | 69 | 1010.8 |
| 20260508150018 | 56 | 80 | 3.0 | 10.0 | 0.00 | 0.07 | 0.00 | 73 | 1010.7 |
| 20260508145018 | 55 | 80 | 4.0 | 7.0 | 0.00 | 0.07 | 0.00 | 77 | 1010.8 |
| 20260508144018 | 54 | 75 | 3.0 | 7.0 | 0.00 | 0.07 | 0.00 | 78 | 1010.9 |
| 20260508143018 | 54 | 54 | 2.0 | 7.0 | 0.00 | 0.07 | 0.00 | 80 | 1010.9 |
| 20260508142018 | 53 | 72 | 3.0 | 6.0 | 0.00 | 0.07 | 0.00 | 81 | 1010.9 |
| 20260508141019 | 52 | 75 | 2.0 | 6.0 | 0.00 | 0.07 | 0.00 | 83 | 1010.8 |
| 20260508140019 | 52 | 67 | 2.0 | 4.0 | 0.00 | 0.07 | 0.00 | 85 | 1010.8 |
| 20260508135037 | 51 | 65 | 3.0 | 5.0 | 0.00 | 0.07 | 0.00 | 89 | 1010.7 |
| 20260508134036 | 51 | 79 | 2.0 | 4.0 | 0.00 | 0.07 | 0.00 | 97 | 1010.8 |
| 20260508133039 | 49 | 73 | 3.0 | 5.0 | 0.00 | 0.07 | 0.00 | 99 | 1011.0 |
| 20260508132019 | 48 | 62 | 3.0 | 6.0 | 0.00 | 0.07 | 0.00 | 100 | 1010.8 |
| 20260508131020 | 47 | 74 | 3.0 | 4.0 | 0.00 | 0.07 | 0.00 | 100 | 1011.1 |
| 20260508130109 | 46 | 56 | 2.0 | 3.0 | 0.00 | 0.07 | 0.00 | 100 | 1011.0 |
| 20260508125049 | 45 | 4 | 1.0 | 2.0 | 0.00 | 0.07 | 0.00 | 100 | 1011.1 |